Time,TemperatureF,DewpointF,PressureIn,WindDirection,WindDirectionDegrees,WindSpeedMPH,WindSpeedGustMPH,Humidity,HourlyPrecipIn,Conditions,Clouds,dailyrainin,SoftwareType,DateUTC
2013-09-28 00:25:00,63.0,-99.9,-100.00,NNW,330,1.0,-999.0,-999,-99.99,,,0.00,,2013-09-28 04:25:00,
2013-09-28 00:30:00,62.0,-99.9,-100.00,West,260,1.0,-999.0,-999,-99.99,,,0.00,,2013-09-28 04:30:00,
2013-09-28 00:44:00,62.0,-99.9,-100.00,SW,224,1.0,-999.0,-999,-99.99,,,0.00,,2013-09-28 04:44:00,
2013-09-28 00:54:00,62.0,-99.9,-100.00,SW,224,1.0,-999.0,-999,-99.99,,,0.00,,2013-09-28 04:54:00,
2013-09-28 01:13:00,62.0,-99.9,-100.00,West,260,1.0,-999.0,-999,-99.99,,,0.00,,2013-09-28 05:13:00,
2013-09-28 01:22:00,62.0,-99.9,-100.00,West,260,1.0,-999.0,-999,-99.99,,,0.00,,2013-09-28 05:22:00,
2013-09-28 02:22:00,61.0,-99.9,-100.00,SSW,192,2.0,-999.0,-999,-99.99,,,0.00,,2013-09-28 06:22:00,
2013-09-28 02:42:00,60.0,-99.9,-100.00,NW,309,3.0,-999.0,-999,-99.99,,,0.00,,2013-09-28 06:42:00,
2013-09-28 03:00:00,59.0,-99.9,-100.00,West,276,2.0,-999.0,-999,-99.99,,,0.00,,2013-09-28 07:00:00,
2013-09-28 03:52:00,59.0,-99.9,-100.00,West,276,2.0,-999.0,-999,-99.99,,,0.00,,2013-09-28 07:52:00,
2013-09-28 04:22:00,59.0,-99.9,-100.00,NW,314,2.0,-999.0,-999,-99.99,,,0.00,,2013-09-28 08:22:00,
2013-09-28 04:43:00,59.0,-99.9,-100.00,WNW,296,2.0,-999.0,-999,-99.99,,,0.00,,2013-09-28 08:43:00,
2013-09-28 05:43:00,58.0,-99.9,-100.00,WSW,247,1.0,-999.0,-999,-99.99,,,-99.99,,2013-09-28 09:43:00,
2013-09-28 05:54:00,59.0,-99.9,-100.00,SW,223,1.0,-999.0,-999,-99.99,,,-99.99,,2013-09-28 09:54:00,
2013-09-28 06:03:00,59.0,-99.9,-100.00,SW,223,1.0,-999.0,-999,-99.99,,,-99.99,,2013-09-28 10:03:00,
2013-09-28 06:43:00,58.0,-99.9,-100.00,NW,313,1.0,-999.0,-999,-99.99,,,0.00,,2013-09-28 10:43:00,
2013-09-28 07:12:00,58.0,-99.9,-100.00,NW,308,1.0,-999.0,-999,-99.99,,,0.00,,2013-09-28 11:12:00,
2013-09-28 07:43:00,58.0,-99.9,-100.00,WNW,287,1.0,-999.0,-999,-99.99,,,0.00,,2013-09-28 11:43:00,
2013-09-28 07:52:00,58.0,-99.9,-100.00,NW,309,2.0,-999.0,-999,-99.99,,,0.00,,2013-09-28 11:52:00,
2013-09-28 08:01:00,58.0,-99.9,-100.00,NW,309,2.0,-999.0,-999,-99.99,,,0.00,,2013-09-28 12:01:00,
2013-09-28 08:12:00,58.0,-99.9,-100.00,NW,309,2.0,-999.0,-999,-99.99,,,0.00,,2013-09-28 12:12:00,
2013-09-28 08:42:00,58.0,-99.9,-100.00,WNW,294,1.0,-999.0,-999,-99.99,,,0.00,,2013-09-28 12:42:00,
2013-09-28 09:12:00,58.0,-99.9,-100.00,WNW,302,1.0,-999.0,-999,-99.99,,,0.00,,2013-09-28 13:12:00,
2013-09-28 09:42:00,58.0,-99.9,-100.00,West,275,1.0,-999.0,-999,-99.99,,,0.00,,2013-09-28 13:42:00,
2013-09-28 10:12:00,59.0,-99.9,-100.00,West,264,1.0,-999.0,-999,-99.99,,,0.00,,2013-09-28 14:12:00,
2013-09-28 10:42:00,60.0,-99.9,-100.00,SE,132,1.0,-999.0,-999,-99.99,,,0.00,,2013-09-28 14:42:00,
2013-09-28 10:52:00,61.0,-99.9,-100.00,SE,133,1.0,-999.0,-999,-99.99,,,0.00,,2013-09-28 14:52:00,
2013-09-28 11:03:00,61.0,-99.9,-100.00,SE,133,1.0,-999.0,-999,-99.99,,,0.00,,2013-09-28 15:03:00,
2013-09-28 11:12:00,61.0,-99.9,-100.00,SE,133,1.0,-999.0,-999,-99.99,,,0.00,,2013-09-28 15:12:00,
2013-09-28 11:44:00,65.0,-99.9,-100.00,SW,232,2.0,-999.0,-999,-99.99,,,0.00,,2013-09-28 15:44:00,
2013-09-28 12:14:00,68.0,-99.9,-100.00,West,262,2.0,-999.0,-999,-99.99,,,0.00,,2013-09-28 16:14:00,
2013-09-28 12:43:00,69.0,-99.9,-100.00,SW,220,3.0,-999.0,-999,-99.99,,,-99.99,,2013-09-28 16:43:00,
2013-09-28 13:13:00,71.0,-99.9,-100.00,South,187,4.0,-999.0,-999,-99.99,,,0.00,,2013-09-28 17:13:00,
2013-09-28 13:43:00,72.0,-99.9,-100.00,SE,143,3.0,-999.0,-999,-99.99,,,0.00,,2013-09-28 17:43:00,
2013-09-28 13:52:00,73.0,-99.9,-100.00,SW,220,3.0,-999.0,-999,-99.99,,,0.00,,2013-09-28 17:52:00,
2013-09-28 14:02:00,73.0,-99.9,-100.00,SW,220,3.0,-999.0,-999,-99.99,,,0.00,,2013-09-28 18:02:00,
2013-09-28 14:12:00,73.0,-99.9,-100.00,SW,220,3.0,-999.0,-999,-99.99,,,0.00,,2013-09-28 18:12:00,
2013-09-28 14:42:00,73.0,-99.9,-100.00,SSE,148,4.0,-999.0,-999,-99.99,,,0.00,,2013-09-28 18:42:00,
2013-09-28 15:12:00,73.0,-99.9,-100.00,North,0,3.0,-999.0,-999,-99.99,,,-99.99,,2013-09-28 19:12:00,
2013-09-28 15:42:00,74.0,-99.9,-100.00,NE,40,4.0,-999.0,-999,-99.99,,,-99.99,,2013-09-28 19:42:00,
2013-09-28 17:44:00,75.0,-99.9,-100.00,SE,132,3.0,-999.0,-999,-99.99,,,0.00,,2013-09-28 21:44:00,
2013-09-28 18:43:00,76.0,-99.9,-100.00,SE,140,2.0,-999.0,-999,-99.99,,,0.00,,2013-09-28 22:43:00,
2013-09-28 20:43:00,68.0,-99.9,-100.00,NW,311,1.0,-999.0,-999,-99.99,,,0.00,,2013-09-29 00:43:00,
2013-09-28 22:12:00,65.0,-99.9,-100.00,WNW,284,1.0,-999.0,-999,-99.99,,,0.00,,2013-09-29 02:12:00,
2013-09-28 22:53:00,63.0,-99.9,-100.00,SW,233,1.0,-999.0,-999,-99.99,,,-99.99,,2013-09-29 02:53:00,
2013-09-28 23:12:00,62.0,-99.9,-100.00,NW,311,1.0,-999.0,-999,-99.99,,,0.00,,2013-09-29 03:12:00,
2013-09-28 23:44:00,63.0,-99.9,-100.00,SSW,213,1.0,-999.0,-999,-99.99,,,0.00,,2013-09-29 03:44:00,